User: anonymous   Login
Location: Mary A Oil Field
(38.5606°N, 98.9545°W)
Time: 18:03:29
(UTC+00:00)
Language:

Cosmos 1461 - Orbit

View from above orbital plane
View from above orbital plane
View from above satellite
View from above satellite

Ground track
Ground track

The orbit data is extracted from the following two-line orbital elements,

1 14064U 83044A   20100.23536884  .00000330  00000-0  42231-4 0  9998
2 14064  65.0018 344.2311 0103545 347.7904  12.0703 14.94666729876803
Epoch (UTC): 09 April 2020 05:38:55
Eccentricity: 0.0103545
inclination: 65.0018°
perigee height: 511 km
apogee height: 655 km
right ascension of ascending node: 344.2311°
argument of perigee: 347.7904°
revolutions per day: 14.94666729
mean anomaly at epoch: 12.0703°
orbit number at epoch: 87680

The dashed part of the orbit path shows where the satellite is in the earth's shadow,  

DLR